User: anonymous   Login
Location: Bavegemberg
(50.9500°N, 3.8833°E)
Time: 07:28:31
(UTC+00:00)
Language:

Cosmos 1814 Rocket - Orbit

View from above orbital plane
View from above orbital plane
View from above satellite
View from above satellite

Ground track
Ground track

The orbit data is extracted from the following two-line orbital elements,

1 17304U 87006B   24196.94452267  .00000549  00000-0  18754-3 0  9993
2 17304  74.0586  18.2453 0030108 288.9235  70.8656 14.38438309964564
Epoch (UTC): 14 July 2024 22:40:06
Eccentricity: 0.0030108
inclination: 74.0586°
perigee height: 742 km
apogee height: 785 km
right ascension of ascending node: 18.2453°
argument of perigee: 288.9235°
revolutions per day: 14.38438309
mean anomaly at epoch: 70.8656°
orbit number at epoch: 96456

The dashed part of the orbit path shows where the satellite is in the earth's shadow,  

DLR